AAL171 KJFK-KLAX

Flight info

Callsign AAL171
Flight time N/A
Altitude 34000
Route COATE Q436 RAAKK CRL J554 GIJ PIGGG CID SCB OBH BENNZ BICAR EKR SAKES BCE LAKRR Q88 HAKMN ANJLL4
Aircraft A321/M-SDE3FGHIRWY/LB1

Departure

Time N/A
Airport John F. Kennedy International Airport (KJFK)

Arrival

Time 2026-05-04 16:11
Airport Los Angeles International Airport (KLAX)
Time Latitude Longitude Altitude Speed Heading
2026-05-04 14:12 40.23541 -107.31576 35988 ft 380 kts 254°
2026-05-04 14:13 40.22651 -107.34836 35979 ft 380 kts 254°
2026-05-04 14:13 40.20873 -107.41345 35960 ft 379 kts 254°
2026-05-04 14:14 40.19102 -107.47841 35953 ft 379 kts 254°
2026-05-04 14:14 40.16427 -107.57560 35972 ft 378 kts 254°
2026-05-04 14:15 40.12857 -107.70485 36027 ft 377 kts 253°
2026-05-04 14:16 40.10181 -107.80150 36070 ft 377 kts 253°
2026-05-04 14:17 40.07491 -107.89812 36073 ft 377 kts 253°
2026-05-04 14:17 40.05022 -107.95896 36063 ft 384 kts 242°
2026-05-04 14:18 40.03542 -107.98797 36060 ft 383 kts 242°
2026-05-04 14:19 39.97649 -108.10390 36012 ft 383 kts 242°
2026-05-04 14:19 39.94697 -108.16172 35974 ft 383 kts 242°
2026-05-04 14:20 39.91743 -108.21951 35929 ft 383 kts 242°
2026-05-04 14:20 39.88807 -108.27688 35887 ft 383 kts 242°
2026-05-04 14:21 39.84347 -108.36379 35868 ft 383 kts 242°
2026-05-04 14:21 39.81402 -108.42110 35869 ft 383 kts 242°
2026-05-04 14:22 39.78415 -108.47910 35860 ft 383 kts 242°
2026-05-04 14:22 39.75445 -108.53672 35862 ft 384 kts 241°
2026-05-04 14:23 39.70981 -108.62315 35854 ft 384 kts 241°
2026-05-04 14:24 39.67993 -108.68072 35859 ft 385 kts 241°
2026-05-04 14:24 39.64996 -108.73823 35859 ft 384 kts 241°
2026-05-04 14:25 39.61998 -108.79569 35862 ft 384 kts 241°
2026-05-04 14:25 39.57506 -108.88179 35859 ft 385 kts 241°
2026-05-04 14:26 39.54505 -108.93926 35859 ft 385 kts 240°
2026-05-04 14:26 39.51500 -108.99668 35853 ft 385 kts 240°
2026-05-04 14:27 39.48489 -109.05408 35856 ft 385 kts 240°
2026-05-04 14:27 39.45478 -109.11138 35850 ft 385 kts 240°
2026-05-04 14:28 39.42456 -109.16871 35857 ft 386 kts 240°
2026-05-04 14:28 39.39424 -109.22611 35854 ft 386 kts 240°
2026-05-04 14:29 39.33380 -109.34043 35855 ft 385 kts 240°
2026-05-04 14:30 39.30356 -109.39749 35858 ft 385 kts 240°
2026-05-04 14:31 39.26329 -109.47331 35854 ft 385 kts 240°
2026-05-04 14:32 39.20271 -109.58691 35855 ft 384 kts 240°
2026-05-04 14:32 39.17248 -109.64360 35857 ft 384 kts 240°
2026-05-04 14:33 39.14220 -109.70016 35861 ft 383 kts 239°
2026-05-04 14:33 39.11194 -109.75663 35855 ft 383 kts 239°
2026-05-04 14:34 39.08159 -109.81304 35873 ft 384 kts 239°
2026-05-04 14:34 39.05117 -109.86943 35880 ft 383 kts 239°
2026-05-04 14:35 39.02088 -109.92563 35878 ft 382 kts 239°
2026-05-04 14:35 38.99071 -109.98166 35884 ft 381 kts 239°
2026-05-04 14:36 38.96052 -110.03749 35874 ft 380 kts 239°
2026-05-04 14:36 38.93038 -110.09310 35865 ft 379 kts 239°
2026-05-04 14:37 38.90025 -110.14855 35854 ft 378 kts 239°
2026-05-04 14:37 38.87018 -110.20386 35841 ft 377 kts 239°
2026-05-04 14:38 38.84013 -110.25894 35843 ft 376 kts 239°
2026-05-04 14:38 38.81023 -110.31378 35845 ft 374 kts 239°
2026-05-04 14:39 38.78041 -110.36841 35846 ft 373 kts 239°
2026-05-04 14:39 38.75055 -110.42274 35844 ft 373 kts 239°
2026-05-04 14:40 38.70585 -110.50408 35872 ft 371 kts 239°
2026-05-04 14:40 38.67617 -110.55813 35901 ft 370 kts 239°
2026-05-04 14:41 38.64659 -110.61199 35928 ft 370 kts 239°
2026-05-04 14:42 38.58728 -110.71919 35974 ft 368 kts 239°
2026-05-04 14:42 38.55780 -110.77253 35992 ft 367 kts 239°
2026-05-04 14:43 38.52837 -110.82568 35989 ft 366 kts 239°
2026-05-04 14:43 38.49898 -110.87857 35978 ft 364 kts 239°
2026-05-04 14:44 38.46969 -110.93122 35970 ft 363 kts 239°
2026-05-04 14:44 38.44049 -110.98361 35941 ft 362 kts 239°
2026-05-04 14:45 38.41136 -111.03582 35924 ft 360 kts 239°
2026-05-04 14:45 38.38233 -111.08773 35893 ft 359 kts 239°
2026-05-04 14:46 38.35335 -111.13946 35872 ft 358 kts 239°
2026-05-04 14:46 38.32446 -111.19095 35864 ft 356 kts 239°
2026-05-04 14:47 38.29569 -111.24223 35870 ft 356 kts 239°
2026-05-04 14:47 38.26690 -111.29327 35874 ft 354 kts 239°
2026-05-04 14:48 38.23826 -111.34402 35878 ft 353 kts 239°
2026-05-04 14:48 38.20965 -111.39474 35888 ft 352 kts 239°
2026-05-04 14:49 38.18110 -111.44533 35894 ft 351 kts 239°
2026-05-04 14:49 38.15264 -111.49563 35898 ft 350 kts 239°
2026-05-04 14:50 38.12421 -111.54582 35904 ft 349 kts 239°
2026-05-04 14:50 38.09588 -111.59583 35905 ft 349 kts 239°
2026-05-04 14:51 38.06750 -111.64579 35905 ft 348 kts 239°
2026-05-04 14:51 38.03916 -111.69544 35909 ft 347 kts 239°
2026-05-04 14:52 38.01086 -111.74510 35904 ft 347 kts 239°
2026-05-04 14:52 37.98255 -111.79462 35903 ft 346 kts 239°
2026-05-04 14:53 37.95423 -111.84403 35925 ft 346 kts 239°
2026-05-04 14:53 37.92592 -111.89340 35965 ft 346 kts 239°
2026-05-04 14:54 37.89762 -111.94279 36001 ft 346 kts 238°
2026-05-04 14:54 37.86932 -111.99211 36039 ft 346 kts 238°
2026-05-04 14:55 37.84100 -112.04125 36075 ft 345 kts 238°
2026-05-04 14:55 37.81271 -112.09026 36108 ft 345 kts 238°
2026-05-04 14:56 37.78446 -112.13930 36124 ft 345 kts 238°
2026-05-04 14:56 37.75622 -112.18820 36125 ft 344 kts 238°
2026-05-04 14:57 37.72791 -112.23694 36125 ft 344 kts 238°
2026-05-04 14:57 37.69962 -112.28571 36112 ft 344 kts 238°
2026-05-04 14:58 37.66776 -112.33134 36069 ft 349 kts 231°
2026-05-04 14:58 37.63356 -112.37481 36039 ft 349 kts 232°
2026-05-04 14:59 37.59942 -112.41816 35999 ft 348 kts 232°
2026-05-04 15:00 37.54829 -112.48293 35939 ft 347 kts 232°
2026-05-04 15:00 37.51426 -112.52609 35897 ft 347 kts 232°
2026-05-04 15:01 37.46339 -112.59052 35906 ft 347 kts 231°
2026-05-04 15:01 37.42933 -112.63356 35902 ft 347 kts 231°
2026-05-04 15:02 37.39527 -112.67651 35900 ft 347 kts 231°
2026-05-04 15:02 37.36118 -112.71941 35901 ft 346 kts 231°
2026-05-04 15:03 37.32715 -112.76217 35897 ft 345 kts 231°
2026-05-04 15:03 37.29318 -112.80484 35892 ft 345 kts 231°
2026-05-04 15:04 37.25930 -112.84733 35903 ft 344 kts 231°
2026-05-04 15:04 37.22544 -112.88971 35923 ft 343 kts 231°
2026-05-04 15:05 37.19171 -112.93201 35953 ft 343 kts 231°
2026-05-04 15:05 37.15802 -112.97427 35975 ft 342 kts 231°
2026-05-04 15:06 37.12435 -113.01623 35974 ft 340 kts 231°
2026-05-04 15:07 37.07926 -113.07232 36006 ft 342 kts 231°
2026-05-04 15:07 37.04550 -113.11427 36020 ft 342 kts 231°
2026-05-04 15:08 37.01180 -113.15620 36016 ft 342 kts 231°
2026-05-04 15:08 36.97811 -113.19811 36001 ft 341 kts 231°
2026-05-04 15:09 36.94435 -113.23983 35978 ft 341 kts 231°
2026-05-04 15:09 36.91065 -113.28149 35951 ft 341 kts 231°
2026-05-04 15:10 36.86009 -113.34385 35892 ft 340 kts 231°
2026-05-04 15:11 36.80964 -113.40606 35880 ft 339 kts 231°
2026-05-04 15:11 36.77603 -113.44744 35872 ft 339 kts 231°
2026-05-04 15:12 36.74240 -113.48876 35863 ft 339 kts 231°
2026-05-04 15:12 36.70883 -113.53004 35850 ft 339 kts 231°
2026-05-04 15:13 36.67525 -113.57122 35834 ft 339 kts 231°
2026-05-04 15:13 36.64162 -113.61239 35833 ft 339 kts 231°
2026-05-04 15:14 36.60802 -113.65354 35831 ft 339 kts 230°
2026-05-04 15:14 36.57441 -113.69460 35823 ft 339 kts 230°
2026-05-04 15:15 36.54075 -113.73557 35818 ft 339 kts 230°
2026-05-04 15:15 36.50709 -113.77653 35812 ft 339 kts 230°
2026-05-04 15:16 36.45660 -113.83797 35803 ft 338 kts 230°
2026-05-04 15:17 36.40621 -113.89920 35796 ft 338 kts 230°
2026-05-04 15:17 36.35569 -113.96038 35789 ft 338 kts 230°
2026-05-04 15:18 36.32196 -114.00114 35781 ft 338 kts 230°
2026-05-04 15:19 36.27138 -114.06226 35770 ft 339 kts 230°
2026-05-04 15:19 36.22076 -114.12333 35769 ft 338 kts 230°
2026-05-04 15:20 36.18709 -114.16381 35756 ft 338 kts 230°
2026-05-04 15:20 36.15325 -114.20441 35753 ft 340 kts 230°
2026-05-04 15:21 36.11935 -114.24519 35755 ft 340 kts 230°
2026-05-04 15:22 36.06913 -114.30699 35755 ft 338 kts 232°
2026-05-04 15:22 36.02245 -114.37236 35757 ft 338 kts 233°
2026-05-04 15:23 35.99146 -114.41600 35758 ft 338 kts 233°
2026-05-04 15:23 35.96013 -114.45944 35779 ft 339 kts 232°
2026-05-04 15:24 35.89729 -114.54616 35815 ft 339 kts 232°
2026-05-04 15:25 35.86581 -114.58957 35828 ft 339 kts 232°
2026-05-04 15:26 35.81861 -114.65453 35850 ft 339 kts 232°
2026-05-04 15:26 35.77131 -114.71946 35869 ft 340 kts 232°
2026-05-04 15:27 35.72400 -114.78433 35871 ft 339 kts 232°
2026-05-04 15:28 35.67660 -114.84902 35866 ft 340 kts 232°
2026-05-04 15:29 35.62917 -114.91392 35874 ft 340 kts 232°
2026-05-04 15:30 35.51843 -115.06520 35895 ft 340 kts 232°
2026-05-04 15:31 35.47032 -115.12937 35909 ft 341 kts 231°
2026-05-04 15:32 35.38888 -115.23504 35934 ft 341 kts 231°
2026-05-04 15:34 35.30775 -115.34075 35950 ft 341 kts 231°
2026-05-04 15:34 35.25900 -115.40405 35979 ft 341 kts 231°
2026-05-04 15:35 35.21011 -115.46736 35974 ft 341 kts 231°
2026-05-04 15:36 35.16120 -115.53056 35976 ft 341 kts 231°
2026-05-04 15:36 35.12865 -115.57251 35969 ft 340 kts 231°
2026-05-04 15:37 35.09604 -115.61439 35969 ft 340 kts 231°
2026-05-04 15:37 35.06336 -115.65620 35970 ft 340 kts 231°
2026-05-04 15:38 35.03071 -115.69789 35981 ft 340 kts 230°
2026-05-04 15:38 34.99805 -115.73951 35967 ft 340 kts 230°
2026-05-04 15:39 34.96539 -115.78120 35963 ft 340 kts 230°
2026-05-04 15:40 34.91631 -115.84372 35966 ft 340 kts 230°
2026-05-04 15:40 34.88356 -115.88538 35964 ft 340 kts 230°
2026-05-04 15:41 34.85075 -115.92706 35960 ft 340 kts 230°
2026-05-04 15:41 34.81797 -115.96861 35961 ft 340 kts 230°
2026-05-04 15:42 34.78515 -116.01008 35958 ft 340 kts 230°
2026-05-04 15:42 34.75788 -116.04459 35969 ft 340 kts 230°
2026-05-04 15:43 34.72524 -116.08623 35950 ft 340 kts 230°
2026-05-04 15:43 34.69262 -116.12785 35954 ft 340 kts 230°
2026-05-04 15:44 34.65994 -116.16942 35952 ft 340 kts 230°
2026-05-04 15:44 34.62733 -116.21092 35952 ft 339 kts 230°
2026-05-04 15:45 34.59465 -116.25235 35969 ft 340 kts 230°
2026-05-04 15:45 34.56197 -116.29372 35974 ft 339 kts 230°
2026-05-04 15:46 34.52929 -116.33506 35981 ft 340 kts 230°
2026-05-04 15:46 34.49654 -116.37637 35983 ft 340 kts 230°
2026-05-04 15:47 34.46384 -116.41763 35977 ft 339 kts 230°
2026-05-04 15:47 34.44750 -116.43830 35600 ft 342 kts 230°
2026-05-04 15:47 34.43110 -116.45901 35114 ft 340 kts 229°
2026-05-04 15:47 34.41605 -116.48097 34637 ft 338 kts 237°
2026-05-04 15:48 34.40481 -116.50601 34163 ft 340 kts 242°
2026-05-04 15:48 34.39432 -116.53174 33535 ft 342 kts 241°
2026-05-04 15:48 34.37298 -116.58366 31993 ft 348 kts 241°
2026-05-04 15:49 34.36207 -116.61003 31251 ft 352 kts 240°
2026-05-04 15:49 34.35107 -116.63663 30542 ft 355 kts 240°
2026-05-04 15:49 34.34003 -116.66336 29817 ft 355 kts 240°
2026-05-04 15:49 34.32905 -116.69003 29138 ft 352 kts 240°
2026-05-04 15:50 34.31838 -116.71639 28603 ft 346 kts 241°
2026-05-04 15:50 34.30806 -116.74223 28074 ft 337 kts 242°
2026-05-04 15:50 34.29795 -116.76759 27574 ft 332 kts 241°
2026-05-04 15:50 34.28795 -116.79258 27088 ft 327 kts 241°
2026-05-04 15:51 34.27807 -116.81717 26650 ft 322 kts 241°
2026-05-04 15:51 34.26832 -116.84135 26218 ft 318 kts 241°
2026-05-04 15:51 34.25870 -116.86521 25791 ft 314 kts 241°
2026-05-04 15:51 34.24916 -116.88880 25371 ft 311 kts 241°
2026-05-04 15:52 34.23968 -116.91223 24967 ft 310 kts 241°
2026-05-04 15:52 34.23026 -116.93556 24567 ft 308 kts 242°
2026-05-04 15:52 34.22093 -116.95877 24169 ft 307 kts 242°
2026-05-04 15:52 34.21176 -116.98195 23776 ft 306 kts 245°
2026-05-04 15:53 34.20485 -117.00637 23349 ft 307 kts 248°
2026-05-04 15:53 34.19830 -117.03083 22867 ft 305 kts 249°
2026-05-04 15:53 34.19175 -117.05519 22403 ft 305 kts 249°
2026-05-04 15:53 34.18515 -117.07946 21941 ft 304 kts 249°
2026-05-04 15:54 34.17854 -117.10371 21494 ft 304 kts 249°
2026-05-04 15:54 34.17195 -117.12796 21048 ft 303 kts 249°
2026-05-04 15:54 34.16531 -117.15242 20602 ft 302 kts 249°
2026-05-04 15:54 34.15881 -117.17622 20181 ft 302 kts 249°
2026-05-04 15:55 34.15227 -117.19990 19754 ft 301 kts 249°
2026-05-04 15:55 34.14553 -117.22424 19321 ft 301 kts 249°
2026-05-04 15:55 34.13890 -117.24819 18907 ft 301 kts 250°
2026-05-04 15:55 34.13226 -117.27220 18491 ft 301 kts 250°
2026-05-04 15:56 34.12579 -117.29565 18021 ft 300 kts 250°
2026-05-04 15:56 34.11924 -117.31951 17498 ft 299 kts 250°
2026-05-04 15:56 34.11270 -117.34328 16984 ft 298 kts 250°
2026-05-04 15:56 34.10616 -117.36703 16479 ft 298 kts 250°
2026-05-04 15:57 34.09980 -117.39085 15958 ft 297 kts 251°
2026-05-04 15:57 34.09378 -117.41465 15487 ft 297 kts 251°
2026-05-04 15:57 34.08789 -117.43850 15007 ft 296 kts 252°
2026-05-04 15:57 34.08203 -117.46231 14528 ft 296 kts 252°
2026-05-04 15:58 34.07616 -117.48605 14094 ft 296 kts 252°
2026-05-04 15:58 34.06922 -117.50937 13650 ft 295 kts 246°
2026-05-04 15:58 34.06107 -117.53211 13179 ft 295 kts 246°
2026-05-04 15:58 34.05294 -117.55479 12713 ft 294 kts 246°
2026-05-04 15:59 34.04481 -117.57741 12254 ft 294 kts 246°
2026-05-04 15:59 34.03666 -117.60003 11800 ft 294 kts 246°
2026-05-04 15:59 34.02851 -117.62259 11356 ft 294 kts 246°
2026-05-04 15:59 34.02037 -117.64511 10918 ft 292 kts 246°
2026-05-04 16:00 34.01228 -117.66757 10501 ft 291 kts 246°
2026-05-04 16:00 34.00624 -117.69080 10091 ft 291 kts 258°
2026-05-04 16:00 34.00377 -117.71496 9686 ft 289 kts 262°
2026-05-04 16:00 34.00150 -117.73898 9290 ft 287 kts 262°
2026-05-04 16:01 33.99920 -117.76252 9067 ft 278 kts 262°
2026-05-04 16:01 33.99695 -117.78531 8883 ft 269 kts 262°
2026-05-04 16:01 33.99477 -117.80740 8703 ft 263 kts 262°
2026-05-04 16:01 33.99264 -117.82906 8524 ft 256 kts 262°
2026-05-04 16:02 33.99056 -117.85012 8341 ft 250 kts 262°
2026-05-04 16:02 33.98851 -117.87084 8161 ft 248 kts 262°
2026-05-04 16:02 33.98446 -117.91191 7610 ft 246 kts 263°
2026-05-04 16:03 33.98249 -117.93217 7311 ft 244 kts 263°
2026-05-04 16:03 33.98045 -117.95238 7019 ft 242 kts 263°
2026-05-04 16:03 33.97843 -117.97255 6734 ft 244 kts 263°
2026-05-04 16:03 33.97642 -117.99287 6433 ft 244 kts 264°
2026-05-04 16:04 33.97444 -118.01300 6169 ft 240 kts 264°
2026-05-04 16:04 33.97084 -118.04939 5591 ft 238 kts 263°
2026-05-04 16:04 33.96896 -118.06838 5288 ft 236 kts 263°
2026-05-04 16:05 33.96701 -118.08801 4974 ft 235 kts 263°
2026-05-04 16:05 33.96507 -118.10753 4657 ft 235 kts 263°
2026-05-04 16:05 33.96251 -118.13323 4231 ft 237 kts 263°
2026-05-04 16:06 33.96056 -118.15281 3901 ft 230 kts 263°
2026-05-04 16:06 33.95581 -118.20010 3158 ft 204 kts 263°
2026-05-04 16:07 33.95356 -118.22258 2792 ft 201 kts 263°
2026-05-04 16:07 33.94861 -118.27173 2006 ft 186 kts 263°
2026-05-04 16:08 33.94710 -118.28664 1750 ft 174 kts 263°
2026-05-04 16:08 33.94303 -118.32685 1101 ft 148 kts 263°
2026-05-04 16:09 33.94071 -118.34969 703 ft 129 kts 263°
2026-05-04 16:09 33.93855 -118.37093 353 ft 126 kts 264°
2026-05-04 16:10 33.93648 -118.39137 108 ft 105 kts 262°
2026-05-04 16:11 33.93578 -118.40212 112 ft 16 kts 285°
2026-05-04 16:11 33.93614 -118.40345 108 ft 16 kts 285°
2026-05-04 16:12 33.93595 -118.40750 106 ft 14 kts 264°
2026-05-04 16:12 33.93787 -118.40913 102 ft 13 kts 355°
2026-05-04 16:13 33.93874 -118.40855 97 ft 9 kts 79°
2026-05-04 16:13 33.93944 -118.40867 99 ft 8 kts 290°
2026-05-04 16:14 33.93962 -118.40925 98 ft 0 kts 290°